Weather Roundup
Issued by NWS

Home | Current Version | Previous Version | Text Only | Print | Product List | Glossary On
Versions: 1 2 3 4 5 6 7 8 9 10 11 12 13 14 15 16 17 18 19 20 21 22 23 24 25 26 27 28 29 30 31 32 33 34 35 36 37 38 39 40 41 42 43 44 45 46 47 48 49 50
000
NZUS93 KARX 241510
HRRWXR

CURRENT HOURLY OBSERVATIONS ACROSS
MUCH OF THE UPPER MISSISSIPPI VALLEY
NATIONAL WEATHER SERVICE LA CROSSE WI
1000 AM CDT FRI OCT 24 2014


...SOUTHEAST MINNESOTA...


CITY           SKY/WX    TMP DP  RH WIND       PRES   REMARKS
ROCHESTER      PTSUNNY   52  51  97 S10       29.94S
ROCHESTER/MAYO PTSUNNY   54  51  89 SE12G17   29.93S
WINONA         CLOUDY    54  52  94 SE8       29.97S
AUSTIN         PTSUNNY   54  52  94 S9        29.91S
ALBERT LEA     CLOUDY    54  52  94 S5        29.91R FOG
DODGE CENTER   PTSUNNY   55  52  88 S12       29.90F
PRESTON        PTSUNNY   52  51  98 S8        29.96S FOG
OWATONNA       PTSUNNY   55  50  82 S12G18    29.90R
FARIBAULT      PTSUNNY   55  52  88 S8        29.89S
$$

...ELSEWHERE IN MINNESOTA...


CITY           SKY/WX    TMP DP  RH WIND       PRES   REMARKS
MINNEAPOLIS    PTSUNNY   53  47  79 SE8       29.89S
INTNL FALLS    CLOUDY    57  43  59 SW10      29.74S
DULUTH         MOSUNNY   53  46  77 S12       29.85F
RED WING       PTSUNNY   54  52  94 SE13      29.91F
REDWOOD FALLS  PTSUNNY   52  47  83 S6        29.85S
MANKATO        PTSUNNY   57  46  67 S12       29.88S
WORTHINGTON    CLOUDY    54  52  94 W10       29.89R
FAIRMONT       PTSUNNY   55  50  82 S9        29.88S
$$

...SOUTHWEST WISCONSIN...


CITY           SKY/WX    TMP DP  RH WIND       PRES   REMARKS
LA CROSSE      CLOUDY    52  51  97 SE9       29.99S FOG
PRAIRIE DU CHI CLOUDY    53  52  96 E3        30.01S FOG
BOSCOBEL       CLOUDY    53  51  93 S3        30.03R FOG
LONE ROCK      CLOUDY    53  49  86 CALM      30.04R FOG
PLATTEVILLE    CLOUDY    53  52  97 S8        30.05R VSB 1/4
FORT MC COY    CLOUDY    50  49  98 S5        30.01F FOG
CAMP DOUGLAS   CLOUDY    48  48 100 S6        30.01S FOG
VIROQUA        CLOUDY    50  50 100 SE7       30.00F VSB<1/4
WIS DELLS      FOG       47  46  96 S3        30.03R VSB 1/4
$$

...ELSEWHERE IN WISCONSIN...


CITY           SKY/WX    TMP DP  RH WIND       PRES   REMARKS
MILWAUKEE      CLOUDY    51  48  89 W6        30.06R
MADISON        FOG       50  48  93 S8        30.04S VSB 3/4
GREEN BAY      CLOUDY    48  47  96 VRB6      30.03S FOG
EAU CLAIRE     CLOUDY    50  48  93 SE9       29.96F
BLACK RVR FLS  CLOUDY    49  49 100 SE3       29.99F FOG
MEDFORD        FOG       45  45 100 S7        29.98S VSB 1/4
WAUSAU           N/A     45  44  97 S6        29.98F
WIS RAPIDS     FOG       47  46  97 S5        30.02F VSB 1/2
MARSHFIELD     FOG       47  46  97 S8        30.00S VSB 1/4
RICE LAKE      CLOUDY    50  47  92 SE8       29.95F
$$

...NORTHEAST IOWA...


CITY           SKY/WX    TMP DP  RH WIND       PRES   REMARKS
DECORAH        CLOUDY    54  54 100 SE8G14    29.97F FOG
MASON CITY     FOG       50  50 100 S13       29.94R VSB 1/4
CHARLES CITY   FOG       52  52 100 S10       29.96F VSB 1/4
OELWEIN        FOG       52  52 100 SE13      30.00S VSB<1/4
$$

...ELSEWHERE IN IOWA...


CITY           SKY/WX    TMP DP  RH WIND       PRES   REMARKS
DES MOINES     CLOUDY    61  59  93 S13       29.97S FOG
IOWA CITY      FOG       50  50 100 S6        30.06F VSB 1/4
FORT DODGE     CLOUDY    59  55  88 S12G17    29.93R
$$

...NORTHERN ILLINOIS...


CITY           SKY/WX    TMP DP  RH WIND       PRES   REMARKS
CHICAGO-OHARE  MOSUNNY   55  47  74 VRB3      30.06S
CHICAGO-MIDWAY MOSUNNY   57  48  72 VRB3      30.06F
MOLINE         FOG       54  52  93 SW7       30.06F VSB 3/4
ROCKFORD       FOG       50  49  96 S3        30.09S VSB 1/2
PEORIA         FOG       54  51  90 CALM      30.09F VSB 1/4
$$

NOTE: "FAIR" INDICATES FEW OR NO CLOUDS BELOW 12,000 FEET WITH NO
SIGNIFICANT WEATHER AND/OR OBSTRUCTIONS TO VISIBILITY. WIND
SPEEDS ARE IN MILES-PER-HOUR.



USA.gov is the U.S. government's official web portal to all federal, state and local government web resources and services.